Other Public Products
Issued by NWS Grand Forks, ND

Home | Current Version | Previous Version | Text Only | Print | Product List | Glossary Off
Versions: 1 2 3 4 5 6 7 8 9 10 11 12 13 14 15 16 17 18 19 20 21 22 23 24 25 26 27 28 29 30 31 32 33 34 35 36 37 38 39 40 41 42 43 44 45 46 47 48 49 50

033
FPUS83 KFGF 221010
OPUFGF
PRAIRIE TO PINES WEATHER ROUNDUP
NATIONAL WEATHER SERVICE EASTERN NORTH DAKOTA/GRAND FORKS ND
500 AM CDT SUN OCT 22 2017

 **SATELLITE DATA USED TO AUGMENT SKY COVER AT AUTOMATED STATIONS**
 *****  WEATHER ACROSS EASTERN NORTH DAKOTA  *****

CITY           SKY/WX    TMP DP  RH WIND       PRES   REMARKS
GRAND FORKS    FAIR      45  36  70 SW15      29.73R
GRAND FORKS AF FAIR      42  34  72 W12       29.73R
GRAND CITY NWS NOT AVBL
BUXTON         NOT AVBL
DEVILS LAKE    FAIR      41  34  76 W17       29.75R
FARGO          FAIR      43  36  76 SW12      29.82R
WAHPETON ARPT  NOT AVBL
$$

 *****  WEATHER ACROSS CENTRAL AND WESTERN NORTH DAKOTA  *****

CITY           SKY/WX    TMP DP  RH WIND       PRES   REMARKS
JAMESTOWN      FAIR      40  31  70 W10       29.82S
BISMARCK       FAIR      35  28  75 SW5       29.86F
MINOT          FAIR      39  29  67 SW12      29.77R
MINOT AFB      FAIR      34  27  76 W9        29.75R
GARRISON         N/A     34  30  85 W7        29.81S
WILLISTON      FAIR      31  25  78 SW7       29.78F WCI  24
DICKINSON      FAIR      37  22  54 SW15      29.83F
HETTINGER      FAIR      29  19  66 W6        29.90F WCI  23
$$

 *****  OTHER OBSERVATIONS NORTHEAST NORTH DAKOTA  *****

CITY           SKY/WX    TMP DP  RH WIND       PRES   REMARKS
WALHALLA       FAIR     N/A N/A N/A W13G22    29.64R
LANGDON        NOT AVBL
CAVALIER       CLOUDY    46  37  71 SW17G23   29.66R
GRAFTON        NOT AVBL
CANDO          FAIR      37  37 100 W13       29.74S
FORT TOTTEN      N/A     40  32  74 W8        29.95S
ROLLA          FLURRIES  36  32  87 W10G17    29.69S
RUGBY          NOT AVBL
 ***** THE ABOVE OBSERVATIONS ARE NON NWS ARE NOT QUALITY
        CONTROLLED AND MAY MIS-REPORT RAIN FOR SNOW...
$$

 *****  OTHER OBSERVATIONS SOUTHEAST NORTH DAKOTA *****

CITY           SKY/WX    TMP DP  RH WIND       PRES   REMARKS
COOPERSTOWN    FAIR      41  34  75 W15G21    29.78R
VALLEY CITY    NOT AVBL
OAKES          NOT AVBL
GWINNER          N/A     39  36  87 SW8       29.87R
SHEYENNE NWR     N/A     39  36  89 W7        29.95S
BUFFALO        NOT AVBL
WYNDMERE       NOT AVBL
 ***** THE ABOVE OBSERVATIONS ARE NON NWS ARE NOT QUALITY
       CONTROLLED AND MAY MIS-REPORT RAIN FOR SNOW...
$$

  *****  WEATHER ACROSS NORTHERN MINNESOTA  *****

CITY           SKY/WX    TMP DP  RH WIND       PRES   REMARKS
FLAG ISLAND    LGT RAIN  46  43  87 SW17G24   29.57F
WARROAD        CLOUDY    45  41  87 SW12G17   29.63S
ROSEAU         CLOUDY    45  39  81 SW12      29.63S
HALLOCK        CLOUDY    48  39  71 SW17      29.64S
THF RVR FALLS  FAIR      45  37  73 SW18G25   29.72R
HALSTAD        NOT AVBL
FOSSTON        FAIR      43  36  75 SW13      29.76R
BAUDETTE       CLOUDY    47  39  74 SW18G30   29.63S
WASKISH        CLOUDY    48  39  71 SW18G26   29.68S
CROOKSTON      FAIR      46  36  66 W17       29.75R
$$
  *****  WEATHER ACROSS CENTRAL AND WEST MINNESOTA  *****

CITY           SKY/WX    TMP DP  RH WIND       PRES   REMARKS
BEMIDJI        MOCLDY    45  37  71 W14G22    29.74R
PARK RAPIDS    FAIR      43  38  82 W9        29.79R
WADENA         FAIR      43  37  81 SW8       29.83R
DETROIT LAKES  FAIR      45  36  70 W13G20    29.83R
MOORHEAD       FAIR      43  36  75 SW9       29.84R
FERGUS FALLS   FAIR      39  36  87 SW6       29.87R
ELBOW LAKE     FAIR      38  37  93 W8        29.88R
MORRIS MN      FAIR      39  36  87 S3        29.89R
STAPLES        FAIR      45  37  76 W9        29.84R
WHEATON        FAIR      45  36  70 SW7       29.91R
$$
  *****  WEATHER ELSEWHERE ACROSS MINNESOTA  *****

CITY           SKY/WX    TMP DP  RH WIND       PRES   REMARKS
DULUTH         FAIR      45  44  97 W14       29.77R
INTRNTL FALLS  MOCLDY    45  43  93 SW9       29.65S
ELY            FAIR      48  45  87 SW8       29.71S
CLOQUET        FAIR      45  41  87 SW7       29.79R
BRAINERD       FAIR     N/A N/A N/A W12       29.83R
HIBBING        FAIR      44  42  93 SW6       29.74R
ALEXANDRIA     FAIR      44  38  79 W10       29.89R
SAINT CLOUD    FAIR      45  41  86 SW8       29.89R
MINNEAPOLIS    MOCLDY    50  43  77 W8        29.90R
$$

  *****  WEATHER ACROSS SOUTH DAKOTA  *****

CITY           SKY/WX    TMP DP  RH WIND       PRES   REMARKS
SIOUX FALLS    FAIR      41  36  82 W3        29.98R
BROOKINGS      FAIR      39  34  82 W6        29.95R
WATERTOWN      FAIR      36  34  92 W9        29.92R
HURON          FAIR      38  32  79 SW7       29.97R
SISSETON         N/A     45  36  70 W10       29.88R
ABERDEEN       FAIR      31  29  92 S7        29.92R WCI  24
MITCHELL       FAIR      41  32  70 W13       29.99R
PIERRE         FAIR      39  28  64 W13       29.97R
MOBRIDGE       FAIR      33  27  78 N5        29.90S
RAPID CITY     FAIR      32  17  54 NW10      29.97S WCI  24
$$

  *****  SOME WEATHER IN NEARBY STATES *****

CITY           SKY/WX    TMP DP  RH WIND       PRES   REMARKS
GLASGOW MT     FAIR      34  22  61 S6        29.75F
GREAT FALLS MT FAIR      50  30  46 SW18G30   29.71F
CHEYENNE WY    FAIR      42  15  33 W13       30.12S
SCOTTSBLUFF NE FAIR      40  18  41 CALM      30.07F
OMAHA NE       MOCLDY    46  39  76 NW5       30.02R
DES MOINES IA  CLOUDY    51  47  86 NW5       29.99R
DAVENPORT IA   LGT RAIN  60  59  96 W15G21    29.89R
CHICAGO IL     CLOUDY    68  57  68 S18       29.93F
EAU CLAIRE WI  MOCLDY    51  46  83 W9        29.87R
LA CROSSE WI   LGT RAIN  54  51  90 W7        29.91R
$$

  *****  SOME NATIONAL WEATHER *****

CITY           SKY/WX    TMP DP  RH WIND       PRES   REMARKS
LA GUARDIA NY  FAIR      59  53  80 NE3       30.37R
RALEIGH NC     MOCLDY    52  52 100 CALM      30.34S
ATLANTA GA     FAIR      59  56  89 E10       30.24R
NEW ORLEANS LA LGT RAIN  77  75  93 E9        30.01R
OKLAHOMA CITY  MOCLDY    51  49  92 N9        30.10R
ALBUQUERQUE NM FAIR      47   5  18 NW6       30.34R
SALT LAKE CITY FAIR      45  25  45 SE7       30.33R
LOS ANGELES CA FAIR      62  49  62 CALM      30.09F
BOISE ID       MOCLDY    48  39  71 SE14      30.20S
SEATTLE WA     CLOUDY    55  52  89 SW18G28   29.74S
$$

*** WEATHER ACROSS MANITOBA...SASKATCHEWAN AND ONTARIO ***
                ***ONTARIO***

CITY           SKY/WX    TMP DP  RH WIND       PRES   REMARKS
GERALDTON      MOCLDY    57  55  94 S13       29.70F
THUNDER BAY    CLOUDY    61  57  88 S9        29.65F
SIOUX LOOKOUT  MOCLDY    50  46  87 SW12G20   29.56S
TORONTO        CLEAR     52  50  93 NE3       30.24S
BIG TROUT LK   CLOUDY    55  54  94 SE9       29.40F
PICKLE LAKE    NOT AVBL
DRYDEN         MOCLDY    46  45  93 SW13G22   29.56S
KENORA         CLOUDY    46  43  87 SW9       29.54F
$$
                *** MANITOBA***

CITY           SKY/WX    TMP DP  RH WIND       PRES   REMARKS
BRANDON        PTCLDY    39  36  87 W20G28    29.61R
DAUPHIN        CLOUDY    41  37  87 W15G21    29.55S
ISLAND LAKE    CLOUDY    46  43  87 SW12      29.35
PILOT MOUND      N/A     41  34  75 W12G20      N/A
THE PAS        LGT RAIN  36  34  93 NW22G28   29.44S
THOMPSON       LGT RAIN  36  34  93 NW10      29.24S
WINNIPEG       CLOUDY    46  36  66 W21       29.55S
LYNN LAKE      LGT SNOW  32  32 100 NW12G21   29.39F WCI  23
CHURCHILL      LGT RAIN  37  36  93 N7        29.32F
$$
                ***SASKATCHEWAN***

CITY           SKY/WX    TMP DP  RH WIND       PRES   REMARKS
ESTEVAN        PTCLDY    28  25  86 SW9       29.72F WCI  20
KINDERSLEY     MOCLDY    32  27  80 S8        29.53F WCI  25
LLOYDMINSTER   CLEAR     30  27  86 SE8       29.48F WCI  23
PRINCE ALBERT  FOG       28  27  93 CALM      29.60F VSB 1/4
REGINA         CLEAR     25  25 100 S6        29.67F WCI  18
YORKTON        CLEAR     34  32  93 W9        29.61S
N. BATTLEFORD  CLEAR     30  25  80 E8        29.56F WC



USA.gov is the U.S. government's official web portal to all federal, state and local government web resources and services.